Time,TemperatureF,DewpointF,PressureIn,WindDirection,WindDirectionDegrees,WindSpeedMPH,WindSpeedGustMPH,Humidity,HourlyPrecipIn,Conditions,Clouds,dailyrainin,SoftwareType,DateUTC
2013-01-28 00:09:00,34.1,30.0,30.07,South,171,4.0,-999.0,86,-99.99,,,0.00,weatherlink.com 1.10,2013-01-28 05:09:00,
2013-01-28 00:24:00,34.3,31.0,30.06,South,169,2.0,-999.0,87,-99.99,,,0.00,weatherlink.com 1.10,2013-01-28 05:24:00,
2013-01-28 00:39:00,34.6,31.0,30.06,SSE,153,2.0,-999.0,87,-99.99,,,0.00,weatherlink.com 1.10,2013-01-28 05:39:00,
2013-01-28 00:54:00,34.8,31.0,30.08,SSE,168,0.0,-999.0,87,-99.99,,,0.00,weatherlink.com 1.10,2013-01-28 05:54:00,
2013-01-28 01:09:00,34.9,31.0,30.07,SSE,158,4.0,-999.0,87,-99.99,,,0.00,weatherlink.com 1.10,2013-01-28 06:09:00,
2013-01-28 01:24:00,35.1,32.0,30.05,SSE,149,0.0,-999.0,88,-99.99,,,0.00,weatherlink.com 1.10,2013-01-28 06:24:00,
2013-01-28 01:39:00,35.3,32.0,30.04,SSE,161,4.0,-999.0,88,-99.99,,,0.00,weatherlink.com 1.10,2013-01-28 06:39:00,
2013-01-28 01:54:00,35.5,32.0,30.04,SSW,194,6.0,-999.0,88,-99.99,,,0.00,weatherlink.com 1.10,2013-01-28 06:54:00,
2013-01-28 02:09:00,36.0,33.0,30.02,South,186,11.0,-999.0,88,-99.99,,,0.00,weatherlink.com 1.10,2013-01-28 07:09:00,
2013-01-28 02:24:00,36.2,33.0,30.01,SSW,195,6.0,-999.0,89,-99.99,,,0.00,weatherlink.com 1.10,2013-01-28 07:24:00,
2013-01-28 02:39:00,36.5,34.0,30.00,SW,227,3.0,-999.0,89,-99.99,,,0.00,weatherlink.com 1.10,2013-01-28 07:39:00,
2013-01-28 02:54:00,37.0,34.0,30.00,SE,144,5.0,-999.0,89,-99.99,,,0.00,weatherlink.com 1.10,2013-01-28 07:54:00,
2013-01-28 03:09:00,37.7,35.0,29.99,SSW,211,7.0,-999.0,89,-99.99,,,0.00,weatherlink.com 1.10,2013-01-28 08:09:00,
2013-01-28 03:24:00,38.3,35.0,29.98,South,175,4.0,-999.0,89,-99.99,,,0.00,weatherlink.com 1.10,2013-01-28 08:24:00,
2013-01-28 03:39:00,38.6,36.0,29.98,South,179,6.0,-999.0,90,-99.99,,,0.19,weatherlink.com 1.10,2013-01-28 08:39:00,
2013-01-28 03:54:00,38.9,36.0,29.98,SW,223,12.0,-999.0,90,-99.99,,,0.20,weatherlink.com 1.10,2013-01-28 08:54:00,
2013-01-28 04:09:00,38.6,36.0,29.97,South,188,5.0,-999.0,90,-99.99,,,0.21,weatherlink.com 1.10,2013-01-28 09:09:00,
2013-01-28 04:24:00,38.6,36.0,29.96,South,172,5.0,-999.0,90,-99.99,,,0.21,weatherlink.com 1.10,2013-01-28 09:24:00,
2013-01-28 04:39:00,38.9,36.0,29.96,SSW,198,5.0,-999.0,90,-99.99,,,0.22,weatherlink.com 1.10,2013-01-28 09:39:00,
2013-01-28 04:54:00,39.7,37.0,29.96,SSW,207,4.0,-999.0,90,-99.99,,,0.22,weatherlink.com 1.10,2013-01-28 09:54:00,
2013-01-28 05:09:00,40.0,37.0,29.95,SSW,212,3.0,-999.0,90,-99.99,,,0.23,weatherlink.com 1.10,2013-01-28 10:09:00,
2013-01-28 05:24:00,40.3,38.0,29.95,SSW,206,6.0,-999.0,90,-99.99,,,0.23,weatherlink.com 1.10,2013-01-28 10:24:00,
2013-01-28 05:39:00,40.6,38.0,29.95,SSW,202,6.0,-999.0,91,-99.99,,,0.23,weatherlink.com 1.10,2013-01-28 10:39:00,
2013-01-28 05:54:00,41.0,39.0,29.95,SSW,210,12.0,-999.0,91,-99.99,,,0.24,weatherlink.com 1.10,2013-01-28 10:54:00,
2013-01-28 06:09:00,41.3,39.0,29.94,SW,217,13.0,-999.0,91,-99.99,,,0.24,weatherlink.com 1.10,2013-01-28 11:09:00,
2013-01-28 06:24:00,41.5,39.0,29.93,SSW,199,6.0,-999.0,91,-99.99,,,0.24,weatherlink.com 1.10,2013-01-28 11:24:00,
2013-01-28 06:39:00,41.8,39.0,29.92,SW,217,9.0,-999.0,91,-99.99,,,0.24,weatherlink.com 1.10,2013-01-28 11:39:00,
2013-01-28 06:54:00,41.8,39.0,29.93,SSW,200,6.0,-999.0,91,-99.99,,,0.25,weatherlink.com 1.10,2013-01-28 11:54:00,
2013-01-28 07:09:00,41.8,39.0,29.93,South,188,4.0,-999.0,91,-99.99,,,0.25,weatherlink.com 1.10,2013-01-28 12:09:00,
2013-01-28 07:24:00,41.7,39.0,29.93,SW,214,5.0,-999.0,91,-99.99,,,0.25,weatherlink.com 1.10,2013-01-28 12:24:00,
2013-01-28 07:39:00,41.8,39.0,29.93,SSW,201,9.0,-999.0,91,-99.99,,,0.25,weatherlink.com 1.10,2013-01-28 12:39:00,
2013-01-28 07:54:00,42.0,40.0,29.92,SSW,195,4.0,-999.0,91,-99.99,,,0.26,weatherlink.com 1.10,2013-01-28 12:54:00,
2013-01-28 08:09:00,42.4,40.0,29.93,SSE,166,14.0,-999.0,91,-99.99,,,0.26,weatherlink.com 1.10,2013-01-28 13:09:00,
2013-01-28 08:24:00,42.6,40.0,29.92,SSW,207,6.0,-999.0,91,-99.99,,,0.26,weatherlink.com 1.10,2013-01-28 13:24:00,
2013-01-28 08:39:00,43.0,41.0,29.92,SSW,205,7.0,-999.0,92,-99.99,,,0.26,weatherlink.com 1.10,2013-01-28 13:39:00,
2013-01-28 08:54:00,43.4,41.0,29.92,SSW,205,12.0,-999.0,91,-99.99,,,0.26,weatherlink.com 1.10,2013-01-28 13:54:00,
2013-01-28 09:09:00,44.3,42.0,29.92,SSW,213,12.0,-999.0,92,-99.99,,,0.26,weatherlink.com 1.10,2013-01-28 14:09:00,
2013-01-28 09:24:00,45.1,43.0,29.92,South,182,5.0,-999.0,92,-99.99,,,0.26,weatherlink.com 1.10,2013-01-28 14:24:00,
2013-01-28 09:39:00,45.9,44.0,29.91,SSW,210,4.0,-999.0,92,-99.99,,,0.26,weatherlink.com 1.10,2013-01-28 14:39:00,
2013-01-28 09:54:00,45.9,44.0,29.91,SSW,192,8.0,-999.0,91,-99.99,,,0.26,weatherlink.com 1.10,2013-01-28 14:54:00,
2013-01-28 10:09:00,46.1,44.0,29.91,SW,232,11.0,-999.0,91,-99.99,,,0.26,weatherlink.com 1.10,2013-01-28 15:09:00,
2013-01-28 10:24:00,46.3,44.0,29.92,WSW,244,13.0,-999.0,91,-99.99,,,0.26,weatherlink.com 1.10,2013-01-28 15:24:00,
2013-01-28 10:39:00,46.3,44.0,29.92,South,181,9.0,-999.0,91,-99.99,,,0.26,weatherlink.com 1.10,2013-01-28 15:39:00,
2013-01-28 10:54:00,46.4,44.0,29.92,South,190,11.0,-999.0,91,-99.99,,,0.26,weatherlink.com 1.10,2013-01-28 15:54:00,
2013-01-28 11:09:00,46.8,44.0,29.92,SSW,211,13.0,-999.0,91,-99.99,,,0.26,weatherlink.com 1.10,2013-01-28 16:09:00,
2013-01-28 11:24:00,47.1,45.0,29.93,South,191,7.0,-999.0,91,-99.99,,,0.26,weatherlink.com 1.10,2013-01-28 16:24:00,
2013-01-28 11:39:00,47.7,45.0,29.93,SSW,209,5.0,-999.0,91,-99.99,,,0.26,weatherlink.com 1.10,2013-01-28 16:39:00,
2013-01-28 12:09:00,48.4,46.0,29.91,SW,218,9.0,-999.0,91,-99.99,,,0.26,weatherlink.com 1.10,2013-01-28 17:09:00,
2013-01-28 12:24:00,48.9,46.0,29.91,WSW,240,17.0,-999.0,91,-99.99,,,0.26,weatherlink.com 1.10,2013-01-28 17:24:00,
2013-01-28 12:39:00,49.1,47.0,29.90,SW,223,7.0,-999.0,91,-99.99,,,0.26,weatherlink.com 1.10,2013-01-28 17:39:00,
2013-01-28 12:54:00,49.0,47.0,29.90,SW,233,10.0,-999.0,91,-99.99,,,0.26,weatherlink.com 1.10,2013-01-28 17:54:00,
2013-01-28 13:09:00,49.1,46.0,29.89,SSW,209,14.0,-999.0,90,-99.99,,,0.26,weatherlink.com 1.10,2013-01-28 18:09:00,
2013-01-28 13:24:00,49.2,47.0,29.89,SW,219,15.0,-999.0,90,-99.99,,,0.26,weatherlink.com 1.10,2013-01-28 18:24:00,
2013-01-28 13:39:00,49.5,47.0,29.89,SSW,197,12.0,-999.0,90,-99.99,,,0.26,weatherlink.com 1.10,2013-01-28 18:39:00,
2013-01-28 13:54:00,49.6,47.0,29.88,SW,224,6.0,-999.0,90,-99.99,,,0.26,weatherlink.com 1.10,2013-01-28 18:54:00,
2013-01-28 14:09:00,49.8,47.0,29.88,SSW,211,9.0,-999.0,90,-99.99,,,0.26,weatherlink.com 1.10,2013-01-28 19:09:00,
2013-01-28 14:24:00,49.7,47.0,29.88,SW,219,5.0,-999.0,91,-99.99,,,0.26,weatherlink.com 1.10,2013-01-28 19:24:00,
2013-01-28 14:39:00,49.6,47.0,29.88,SW,222,14.0,-999.0,90,-99.99,,,0.26,weatherlink.com 1.10,2013-01-28 19:39:00,
2013-01-28 14:54:00,49.5,47.0,29.88,SSW,208,5.0,-999.0,91,-99.99,,,0.26,weatherlink.com 1.10,2013-01-28 19:54:00,
2013-01-28 15:09:00,49.4,47.0,29.89,WSW,250,10.0,-999.0,91,-99.99,,,0.26,weatherlink.com 1.10,2013-01-28 20:09:00,
2013-01-28 15:24:00,49.4,47.0,29.89,SW,225,5.0,-999.0,91,-99.99,,,0.26,weatherlink.com 1.10,2013-01-28 20:24:00,
2013-01-28 15:39:00,49.4,47.0,29.89,WSW,238,6.0,-999.0,91,-99.99,,,0.26,weatherlink.com 1.10,2013-01-28 20:39:00,
2013-01-28 15:54:00,49.3,47.0,29.90,SW,229,5.0,-999.0,91,-99.99,,,0.26,weatherlink.com 1.10,2013-01-28 20:54:00,
2013-01-28 16:09:00,49.1,47.0,29.90,SW,219,6.0,-999.0,92,-99.99,,,0.26,weatherlink.com 1.10,2013-01-28 21:09:00,
2013-01-28 16:24:00,49.2,47.0,29.91,SW,227,5.0,-999.0,92,-99.99,,,0.26,weatherlink.com 1.10,2013-01-28 21:24:00,
2013-01-28 16:39:00,48.9,47.0,29.91,SW,216,5.0,-999.0,92,-99.99,,,0.26,weatherlink.com 1.10,2013-01-28 21:39:00,
2013-01-28 16:54:00,48.9,47.0,29.91,SW,231,2.0,-999.0,92,-99.99,,,0.26,weatherlink.com 1.10,2013-01-28 21:54:00,
2013-01-28 17:09:00,48.8,47.0,29.92,SW,215,3.0,-999.0,92,-99.99,,,0.26,weatherlink.com 1.10,2013-01-28 22:09:00,
2013-01-28 17:24:00,48.9,47.0,29.93,SW,223,5.0,-999.0,92,-99.99,,,0.26,weatherlink.com 1.10,2013-01-28 22:24:00,
2013-01-28 17:39:00,48.5,47.0,29.93,SW,230,4.0,-999.0,93,-99.99,,,0.26,weatherlink.com 1.10,2013-01-28 22:39:00,
2013-01-28 17:54:00,48.3,46.0,29.93,SW,220,6.0,-999.0,93,-99.99,,,0.26,weatherlink.com 1.10,2013-01-28 22:54:00,
2013-01-28 18:09:00,48.2,46.0,29.93,SSW,213,3.0,-999.0,93,-99.99,,,0.26,weatherlink.com 1.10,2013-01-28 23:09:00,
2013-01-28 18:24:00,48.0,46.0,29.93,SW,229,0.0,-999.0,93,-99.99,,,0.26,weatherlink.com 1.10,2013-01-28 23:24:00,
2013-01-28 18:39:00,47.9,46.0,29.94,SW,226,0.0,-999.0,93,-99.99,,,0.26,weatherlink.com 1.10,2013-01-28 23:39:00,
2013-01-28 18:54:00,47.8,46.0,29.94,SW,225,4.0,-999.0,93,-99.99,,,0.26,weatherlink.com 1.10,2013-01-28 23:54:00,
2013-01-28 19:09:00,48.0,46.0,29.94,SW,216,4.0,-999.0,93,-99.99,,,0.26,weatherlink.com 1.10,2013-01-29 00:09:00,
2013-01-28 19:24:00,48.1,46.0,29.94,SW,234,5.0,-999.0,93,-99.99,,,0.26,weatherlink.com 1.10,2013-01-29 00:24:00,
2013-01-28 19:39:00,48.2,46.0,29.94,SW,221,2.0,-999.0,93,-99.99,,,0.26,weatherlink.com 1.10,2013-01-29 00:39:00,
2013-01-28 19:54:00,48.1,46.0,29.94,SW,224,3.0,-999.0,93,-99.99,,,0.26,weatherlink.com 1.10,2013-01-29 00:54:00,
2013-01-28 20:09:00,48.2,47.0,29.94,SW,216,11.0,-999.0,94,-99.99,,,0.26,weatherlink.com 1.10,2013-01-29 01:09:00,
2013-01-28 20:24:00,48.3,47.0,29.94,SW,217,5.0,-999.0,94,-99.99,,,0.26,weatherlink.com 1.10,2013-01-29 01:24:00,
2013-01-28 20:39:00,48.4,47.0,29.94,SW,225,4.0,-999.0,94,-99.99,,,0.26,weatherlink.com 1.10,2013-01-29 01:39:00,
2013-01-28 20:54:00,48.4,47.0,29.94,SW,219,4.0,-999.0,94,-99.99,,,0.26,weatherlink.com 1.10,2013-01-29 01:54:00,
2013-01-28 21:09:00,48.3,47.0,29.94,SW,219,3.0,-999.0,94,-99.99,,,0.26,weatherlink.com 1.10,2013-01-29 02:09:00,
2013-01-28 21:24:00,48.4,47.0,29.94,SW,219,0.0,-999.0,94,-99.99,,,0.26,weatherlink.com 1.10,2013-01-29 02:24:00,
2013-01-28 21:39:00,48.3,47.0,29.94,SW,219,2.0,-999.0,94,-99.99,,,0.26,weatherlink.com 1.10,2013-01-29 02:39:00,
2013-01-28 21:54:00,48.3,47.0,29.94,SW,219,2.0,-999.0,94,-99.99,,,0.26,weatherlink.com 1.10,2013-01-29 02:54:00,
2013-01-28 22:09:00,48.1,47.0,29.94,SW,219,1.0,-999.0,94,-99.99,,,0.26,weatherlink.com 1.10,2013-01-29 03:09:00,
2013-01-28 22:24:00,48.3,47.0,29.94,SW,219,4.0,-999.0,94,-99.99,,,0.26,weatherlink.com 1.10,2013-01-29 03:24:00,
2013-01-28 22:39:00,48.5,47.0,29.94,SSW,204,3.0,-999.0,94,-99.99,,,0.26,weatherlink.com 1.10,2013-01-29 03:39:00,
2013-01-28 22:54:00,48.3,47.0,29.94,SSW,197,1.0,-999.0,94,-99.99,,,0.26,weatherlink.com 1.10,2013-01-29 03:54:00,
2013-01-28 23:09:00,48.3,47.0,29.94,South,175,3.0,-999.0,94,-99.99,,,0.26,weatherlink.com 1.10,2013-01-29 04:09:00,
2013-01-28 23:24:00,48.1,47.0,29.94,South,175,0.0,-999.0,94,-99.99,,,0.26,weatherlink.com 1.10,2013-01-29 04:24:00,
2013-01-28 23:39:00,47.9,46.0,29.94,SSE,167,0.0,-999.0,94,-99.99,,,0.26,weatherlink.com 1.10,2013-01-29 04:39:00,
2013-01-28 23:54:00,47.8,46.0,29.95,SSE,166,0.0,-999.0,94,-99.99,,,0.26,weatherlink.com 1.10,2013-01-29 04:54:00,